Time,TemperatureF,DewpointF,PressureIn,WindDirection,WindDirectionDegrees,WindSpeedMPH,WindSpeedGustMPH,Humidity,HourlyPrecipIn,Conditions,Clouds,dailyrainin,SoftwareType,DateUTC
2013-11-14 00:00:00,42.5,34.1,29.80,SW,217,28.0,49.0,72,0.00,,---,0.00,VWS V15.00,2013-11-14 05:00:00,
2013-11-14 00:01:00,43.1,34.3,29.79,SSW,198,45.0,53.0,71,0.00,,---,0.00,VWS V14.01,2013-11-14 05:01:00,
2013-11-14 00:02:00,43.2,34.1,29.79,SW,216,35.0,53.0,70,0.00,,---,0.00,VWS V14.01,2013-11-14 05:02:00,
2013-11-14 00:07:00,43.1,34.0,29.79,SW,222,37.0,45.0,70,0.00,,---,0.00,VWS V14.01,2013-11-14 05:07:00,
2013-11-14 00:12:00,42.9,34.2,29.79,SSW,204,33.0,47.0,71,0.00,,---,0.00,VWS V14.01,2013-11-14 05:12:00,
2013-11-14 00:17:00,42.8,34.4,29.79,SW,218,46.0,47.0,72,0.00,,---,0.00,VWS V14.01,2013-11-14 05:17:00,
2013-11-14 00:22:00,42.7,34.3,29.80,SW,218,39.0,47.0,72,0.00,,---,0.00,VWS V14.01,2013-11-14 05:22:00,
2013-11-14 00:27:00,42.8,34.1,29.79,SSW,212,39.0,47.0,71,0.00,,---,0.00,VWS V14.01,2013-11-14 05:27:00,
2013-11-14 00:30:00,42.4,34.4,29.80,SW,233,23.0,42.0,73,0.00,,---,0.00,VWS V15.00,2013-11-14 05:30:00,
2013-11-14 00:32:00,43.0,34.2,29.79,SSW,208,40.0,40.0,71,0.00,,---,0.00,VWS V14.01,2013-11-14 05:32:00,
2013-11-14 00:37:00,42.8,34.1,29.80,SSW,211,29.0,46.0,71,0.00,,---,0.00,VWS V14.01,2013-11-14 05:37:00,
2013-11-14 00:42:00,42.7,34.3,29.79,SW,215,29.0,46.0,72,0.00,,---,0.00,VWS V14.01,2013-11-14 05:42:00,
2013-11-14 00:47:00,42.8,34.1,29.80,SW,214,30.0,49.0,71,0.00,,---,0.00,VWS V14.01,2013-11-14 05:47:00,
2013-11-14 00:52:00,42.7,34.3,29.80,SW,225,34.0,49.0,72,0.00,,---,0.00,VWS V14.01,2013-11-14 05:52:00,
2013-11-14 00:57:00,42.6,33.9,29.80,SW,219,36.0,49.0,71,0.00,,---,0.00,VWS V14.01,2013-11-14 05:57:00,
2013-11-14 01:00:00,42.2,34.2,29.80,SW,222,23.0,40.0,73,0.00,,---,0.00,VWS V15.00,2013-11-14 06:00:00,
2013-11-14 01:02:00,42.5,34.1,29.80,SW,224,26.0,28.0,72,0.00,,---,0.00,VWS V14.01,2013-11-14 06:02:00,
2013-11-14 01:07:00,42.5,34.1,29.80,SW,214,30.0,40.0,72,0.00,,---,0.00,VWS V14.01,2013-11-14 06:07:00,
2013-11-14 01:12:00,42.4,34.0,29.80,SSW,211,25.0,41.0,72,0.00,,---,0.00,VWS V14.01,2013-11-14 06:12:00,
2013-11-14 01:17:00,42.4,34.0,29.80,WSW,241,27.0,42.0,72,0.00,,---,0.00,VWS V14.01,2013-11-14 06:17:00,
2013-11-14 01:22:00,42.4,34.0,29.80,SW,221,29.0,42.0,72,0.00,,---,0.00,VWS V14.01,2013-11-14 06:22:00,
2013-11-14 01:27:00,42.3,33.9,29.80,SW,223,25.0,42.0,72,0.00,,---,0.00,VWS V14.01,2013-11-14 06:27:00,
2013-11-14 01:30:00,42.0,34.0,29.80,SW,221,27.0,41.0,73,0.00,,---,0.00,VWS V15.00,2013-11-14 06:30:00,
2013-11-14 01:32:00,42.3,34.3,29.80,SW,219,28.0,30.0,73,0.00,,---,0.00,VWS V14.01,2013-11-14 06:32:00,
2013-11-14 01:37:00,42.4,34.0,29.80,SSW,213,27.0,40.0,72,0.00,,---,0.00,VWS V14.01,2013-11-14 06:37:00,
2013-11-14 01:42:00,42.2,34.2,29.80,SW,233,22.0,40.0,73,0.00,,---,0.00,VWS V14.01,2013-11-14 06:42:00,
2013-11-14 01:47:00,42.2,34.2,29.80,SSW,210,27.0,40.0,73,0.00,,---,0.00,VWS V14.01,2013-11-14 06:47:00,
2013-11-14 01:52:00,42.2,34.2,29.80,WSW,237,34.0,40.0,73,0.00,,---,0.00,VWS V14.01,2013-11-14 06:52:00,
2013-11-14 01:57:00,42.2,34.2,29.80,SW,222,29.0,40.0,73,0.00,,---,0.00,VWS V14.01,2013-11-14 06:57:00,
2013-11-14 02:00:00,42.0,34.3,29.80,SW,220,26.0,35.0,74,0.00,,---,0.00,VWS V15.00,2013-11-14 07:00:00,
2013-11-14 02:02:00,42.2,34.2,29.80,SSW,211,22.0,23.0,73,0.00,,---,0.00,VWS V14.01,2013-11-14 07:02:00,
2013-11-14 02:07:00,42.1,34.1,29.80,SW,215,29.0,39.0,73,0.00,,---,0.00,VWS V14.01,2013-11-14 07:07:00,
2013-11-14 02:12:00,42.1,34.1,29.80,SW,214,41.0,41.0,73,0.00,,---,0.00,VWS V14.01,2013-11-14 07:12:00,
2013-11-14 02:17:00,42.2,34.2,29.80,SSW,213,23.0,41.0,73,0.00,,---,0.00,VWS V14.01,2013-11-14 07:17:00,
2013-11-14 02:22:00,42.0,34.0,29.80,SW,216,30.0,41.0,73,0.00,,---,0.00,VWS V14.01,2013-11-14 07:22:00,
2013-11-14 02:27:00,42.0,34.0,29.80,SW,230,28.0,41.0,73,0.00,,---,0.00,VWS V14.01,2013-11-14 07:27:00,
2013-11-14 02:30:00,42.0,34.3,29.80,SSW,211,32.0,36.0,74,0.00,,---,0.00,VWS V15.00,2013-11-14 07:30:00,
2013-11-14 02:32:00,42.0,34.0,29.80,SW,228,26.0,32.0,73,0.00,,---,0.00,VWS V14.01,2013-11-14 07:32:00,
2013-11-14 02:37:00,42.0,34.0,29.80,SW,223,23.0,33.0,73,0.00,,---,0.00,VWS V14.01,2013-11-14 07:37:00,
2013-11-14 02:42:00,42.0,34.3,29.80,SW,220,25.0,33.0,74,0.00,,---,0.00,VWS V14.01,2013-11-14 07:42:00,
2013-11-14 02:47:00,42.1,34.1,29.80,SSW,206,25.0,35.0,73,0.00,,---,0.00,VWS V14.01,2013-11-14 07:47:00,
2013-11-14 02:52:00,42.0,34.0,29.80,SW,218,25.0,35.0,73,0.00,,---,0.00,VWS V14.01,2013-11-14 07:52:00,
2013-11-14 02:57:00,42.0,34.0,29.80,SW,225,22.0,35.0,73,0.00,,---,0.00,VWS V14.01,2013-11-14 07:57:00,
2013-11-14 03:00:00,42.0,34.7,29.80,SW,226,25.0,38.0,75,0.00,,---,0.00,VWS V15.00,2013-11-14 08:00:00,
2013-11-14 03:02:00,41.9,34.2,29.80,SW,218,25.0,26.0,74,0.00,,---,0.00,VWS V14.01,2013-11-14 08:02:00,
2013-11-14 03:07:00,42.1,34.4,29.80,SW,219,24.0,30.0,74,0.00,,---,0.00,VWS V14.01,2013-11-14 08:07:00,
2013-11-14 03:12:00,42.1,34.4,29.80,WSW,240,25.0,36.0,74,0.00,,---,0.00,VWS V14.01,2013-11-14 08:12:00,
2013-11-14 03:17:00,42.1,34.4,29.80,SW,225,32.0,36.0,74,0.00,,---,0.00,VWS V14.01,2013-11-14 08:17:00,
2013-11-14 03:22:00,42.1,34.4,29.80,SW,222,21.0,36.0,74,0.00,,---,0.00,VWS V14.01,2013-11-14 08:22:00,
2013-11-14 03:27:00,42.0,34.3,29.80,SW,221,26.0,36.0,74,0.00,,---,0.00,VWS V14.01,2013-11-14 08:27:00,
2013-11-14 03:30:00,42.0,34.7,29.80,SW,232,22.0,35.0,75,0.00,,---,0.00,VWS V15.00,2013-11-14 08:30:00,
2013-11-14 03:32:00,42.0,34.3,29.80,SW,229,32.0,33.0,74,0.00,,---,0.00,VWS V14.01,2013-11-14 08:32:00,
2013-11-14 03:37:00,42.2,34.5,29.80,SW,225,27.0,38.0,74,0.00,,---,0.00,VWS V14.01,2013-11-14 08:37:00,
2013-11-14 03:42:00,42.1,34.8,29.80,SW,226,27.0,38.0,75,0.00,,---,0.00,VWS V14.01,2013-11-14 08:42:00,
2013-11-14 03:48:00,42.1,34.8,29.81,SW,231,19.0,38.0,75,0.00,,---,0.00,VWS V14.01,2013-11-14 08:48:00,
2013-11-14 03:53:00,42.0,34.7,29.81,SW,231,22.0,38.0,75,0.00,,---,0.00,VWS V14.01,2013-11-14 08:53:00,
2013-11-14 03:58:00,42.0,34.7,29.80,SSW,196,22.0,38.0,75,0.00,,---,0.00,VWS V14.01,2013-11-14 08:58:00,
2013-11-14 04:00:00,41.8,34.8,29.79,WSW,237,18.0,30.0,76,0.00,,---,0.00,VWS V15.00,2013-11-14 09:00:00,
2013-11-14 04:03:00,42.0,34.7,29.80,SW,214,23.0,30.0,75,0.00,,---,0.00,VWS V14.01,2013-11-14 09:03:00,
2013-11-14 04:08:00,42.1,34.8,29.80,SW,227,21.0,35.0,75,0.00,,---,0.00,VWS V14.01,2013-11-14 09:08:00,
2013-11-14 04:13:00,42.0,34.7,29.80,SW,225,19.0,35.0,75,0.00,,---,0.00,VWS V14.01,2013-11-14 09:13:00,
2013-11-14 04:18:00,42.0,34.7,29.80,SW,227,23.0,35.0,75,0.00,,---,0.00,VWS V14.01,2013-11-14 09:18:00,
2013-11-14 04:23:00,41.9,34.9,29.80,SW,232,25.0,35.0,76,0.00,,---,0.00,VWS V14.01,2013-11-14 09:23:00,
2013-11-14 04:28:00,42.0,34.7,29.80,SW,231,25.0,35.0,75,0.00,,---,0.00,VWS V14.01,2013-11-14 09:28:00,
2013-11-14 04:30:00,41.7,35.0,29.80,SW,231,24.0,29.0,77,0.00,,---,0.00,VWS V15.00,2013-11-14 09:30:00,
2013-11-14 04:33:00,41.9,34.6,29.80,SW,221,21.0,22.0,75,0.00,,---,0.00,VWS V14.01,2013-11-14 09:33:00,
2013-11-14 04:38:00,41.9,34.9,29.80,SW,221,27.0,29.0,76,0.00,,---,0.00,VWS V14.01,2013-11-14 09:38:00,
2013-11-14 04:43:00,41.8,34.8,29.80,SW,227,20.0,29.0,76,0.00,,---,0.00,VWS V14.01,2013-11-14 09:43:00,
2013-11-14 04:48:00,41.9,34.6,29.80,SW,222,24.0,30.0,75,0.00,,---,0.00,VWS V14.01,2013-11-14 09:48:00,
2013-11-14 04:53:00,41.9,34.9,29.80,SSW,212,20.0,30.0,76,0.00,,---,0.00,VWS V14.01,2013-11-14 09:53:00,
2013-11-14 04:58:00,41.8,34.8,29.80,SW,221,25.0,30.0,76,0.00,,---,0.00,VWS V14.01,2013-11-14 09:58:00,
2013-11-14 05:00:00,41.6,34.3,29.80,SSW,212,20.0,29.0,75,0.00,,---,0.00,VWS V15.00,2013-11-14 10:00:00,
2013-11-14 05:03:00,41.8,34.8,29.79,SW,222,22.0,27.0,76,0.00,,---,0.00,VWS V14.01,2013-11-14 10:03:00,
2013-11-14 05:08:00,41.7,35.0,29.79,SSW,211,18.0,28.0,77,0.00,,---,0.00,VWS V14.01,2013-11-14 10:08:00,
2013-11-14 05:13:00,41.7,35.0,29.80,SW,223,21.0,28.0,77,0.00,,---,0.00,VWS V14.01,2013-11-14 10:13:00,
2013-11-14 05:18:00,41.7,35.0,29.79,SSW,212,21.0,29.0,77,0.00,,---,0.00,VWS V14.01,2013-11-14 10:18:00,
2013-11-14 05:23:00,41.7,35.0,29.79,SW,222,27.0,29.0,77,0.00,,---,0.00,VWS V14.01,2013-11-14 10:23:00,
2013-11-14 05:28:00,41.6,34.9,29.79,SW,216,23.0,29.0,77,0.00,,---,0.00,VWS V14.01,2013-11-14 10:28:00,
2013-11-14 05:30:00,41.1,34.1,29.80,SSW,195,8.0,28.0,76,0.00,,---,0.00,VWS V15.00,2013-11-14 10:30:00,
2013-11-14 05:33:00,41.7,35.0,29.80,SSW,207,21.0,25.0,77,0.00,,---,0.00,VWS V14.01,2013-11-14 10:33:00,
2013-11-14 05:38:00,41.6,34.9,29.80,SW,218,22.0,25.0,77,0.00,,---,0.00,VWS V14.01,2013-11-14 10:38:00,
2013-11-14 05:43:00,41.6,34.6,29.79,SSW,207,20.0,25.0,76,0.00,,---,0.00,VWS V14.01,2013-11-14 10:43:00,
2013-11-14 05:48:00,41.6,34.3,29.80,SSW,210,15.0,27.0,75,0.00,,---,0.00,VWS V14.01,2013-11-14 10:48:00,
2013-11-14 05:53:00,41.7,34.7,29.80,SW,217,22.0,29.0,76,0.00,,---,0.00,VWS V14.01,2013-11-14 10:53:00,
2013-11-14 05:58:00,41.7,34.4,29.80,SW,216,22.0,29.0,75,0.00,,---,0.00,VWS V14.01,2013-11-14 10:58:00,
2013-11-14 06:00:00,40.5,34.2,29.81,SSW,196,14.0,20.0,78,0.00,,---,0.00,VWS V15.00,2013-11-14 11:00:00,
2013-11-14 06:03:00,41.6,34.6,29.80,SSW,211,22.0,27.0,76,0.00,,---,0.00,VWS V14.01,2013-11-14 11:03:00,
2013-11-14 06:08:00,41.5,34.5,29.80,SSW,212,16.0,27.0,76,0.00,,---,0.00,VWS V14.01,2013-11-14 11:08:00,
2013-11-14 06:13:00,41.5,34.5,29.80,SSW,211,19.0,28.0,76,0.00,,---,0.00,VWS V14.01,2013-11-14 11:13:00,
2013-11-14 06:18:00,41.5,34.5,29.80,SW,221,19.0,28.0,76,0.00,,---,0.00,VWS V14.01,2013-11-14 11:18:00,
2013-11-14 06:23:00,41.3,34.3,29.80,SSW,208,21.0,28.0,76,0.00,,---,0.00,VWS V14.01,2013-11-14 11:23:00,
2013-11-14 06:28:00,41.3,34.3,29.80,SW,214,18.0,28.0,76,0.00,,---,0.00,VWS V14.01,2013-11-14 11:28:00,
2013-11-14 06:30:00,39.6,34.0,29.81,South,179,11.0,15.0,80,0.00,,---,0.00,VWS V15.00,2013-11-14 11:30:00,
2013-11-14 06:33:00,41.1,34.1,29.80,SSW,212,17.0,18.0,76,0.00,,---,0.00,VWS V14.01,2013-11-14 11:33:00,
2013-11-14 06:38:00,40.9,34.3,29.80,SSW,212,14.0,18.0,77,0.00,,---,0.00,VWS V14.01,2013-11-14 11:38:00,
2013-11-14 06:43:00,40.9,33.9,29.81,SW,218,7.0,20.0,76,0.00,,---,0.00,VWS V14.01,2013-11-14 11:43:00,
2013-11-14 06:48:00,40.9,33.9,29.81,SSW,202,13.0,20.0,76,0.00,,---,0.00,VWS V14.01,2013-11-14 11:48:00,
2013-11-14 06:53:00,40.9,33.9,29.81,SW,214,9.0,20.0,76,0.00,,---,0.00,VWS V14.01,2013-11-14 11:53:00,
2013-11-14 06:58:00,40.6,34.0,29.81,SSW,198,10.0,20.0,77,0.00,,---,0.00,VWS V14.01,2013-11-14 11:58:00,
2013-11-14 07:00:00,39.3,33.7,29.82,South,181,8.0,15.0,80,0.00,,---,0.00,VWS V15.00,2013-11-14 12:00:00,
2013-11-14 07:03:00,40.5,34.2,29.81,SSW,194,10.0,14.0,78,0.00,,---,0.00,VWS V14.01,2013-11-14 12:03:00,
2013-11-14 07:08:00,40.4,34.1,29.81,South,185,11.0,14.0,78,0.00,,---,0.00,VWS V14.01,2013-11-14 12:08:00,
2013-11-14 07:13:00,40.1,34.1,29.81,SSW,192,15.0,15.0,79,0.00,,---,0.00,VWS V14.01,2013-11-14 12:13:00,
2013-11-14 07:18:00,40.0,34.3,29.81,SSW,196,7.0,15.0,80,0.00,,---,0.00,VWS V14.01,2013-11-14 12:18:00,
2013-11-14 07:23:00,39.7,34.0,29.81,South,191,9.0,15.0,80,0.00,,---,0.00,VWS V14.01,2013-11-14 12:23:00,
2013-11-14 07:28:00,39.7,34.0,29.81,SSW,200,6.0,15.0,80,0.00,,---,0.00,VWS V14.01,2013-11-14 12:28:00,
2013-11-14 07:30:00,39.9,33.6,29.81,SSW,200,11.0,18.0,78,0.00,,---,0.00,VWS V15.00,2013-11-14 12:30:00,
2013-11-14 07:33:00,39.6,34.0,29.81,SSW,199,9.0,11.0,80,0.00,,---,0.00,VWS V14.01,2013-11-14 12:33:00,
2013-11-14 07:38:00,39.4,34.1,29.82,South,187,9.0,12.0,81,0.00,,---,0.00,VWS V14.01,2013-11-14 12:38:00,
2013-11-14 07:43:00,39.3,34.0,29.82,South,185,9.0,12.0,81,0.00,,---,0.00,VWS V14.01,2013-11-14 12:43:00,
2013-11-14 07:48:00,39.2,33.9,29.82,SSW,196,10.0,12.0,81,0.00,,---,0.00,VWS V14.01,2013-11-14 12:48:00,
2013-11-14 07:53:00,39.2,33.9,29.81,South,179,10.0,14.0,81,0.00,,---,0.00,VWS V14.01,2013-11-14 12:53:00,
2013-11-14 07:58:00,39.4,33.8,29.81,South,191,7.0,15.0,80,0.00,,---,0.00,VWS V14.01,2013-11-14 12:58:00,
2013-11-14 08:00:00,40.2,33.6,29.82,SSW,199,8.0,20.0,77,0.00,,---,0.00,VWS V15.00,2013-11-14 13:00:00,
2013-11-14 08:03:00,39.3,33.7,29.81,SSW,196,9.0,14.0,80,0.00,,---,0.00,VWS V14.01,2013-11-14 13:03:00,
2013-11-14 08:08:00,39.5,33.8,29.81,SSW,202,9.0,16.0,80,0.00,,---,0.00,VWS V14.01,2013-11-14 13:08:00,
2013-11-14 08:13:00,39.6,33.6,29.81,SSW,195,12.0,16.0,79,0.00,,---,0.00,VWS V14.01,2013-11-14 13:13:00,
2013-11-14 08:18:00,39.8,33.8,29.81,SSW,194,12.0,17.0,79,0.00,,---,0.00,VWS V14.01,2013-11-14 13:18:00,
2013-11-14 08:23:00,40.0,33.7,29.81,South,189,12.0,18.0,78,0.00,,---,0.00,VWS V14.01,2013-11-14 13:23:00,
2013-11-14 08:28:00,40.0,33.7,29.81,South,179,10.0,18.0,78,0.00,,---,0.00,VWS V14.01,2013-11-14 13:28:00,
2013-11-14 08:30:00,41.4,34.1,29.82,SSW,202,9.0,17.0,75,0.00,,---,0.00,VWS V15.00,2013-11-14 13:30:00,
2013-11-14 08:33:00,39.9,33.6,29.81,South,175,11.0,14.0,78,0.00,,---,0.00,VWS V14.01,2013-11-14 13:33:00,
2013-11-14 08:38:00,39.9,33.6,29.82,South,182,8.0,14.0,78,0.00,,---,0.00,VWS V14.01,2013-11-14 13:38:00,
2013-11-14 08:43:00,40.1,33.8,29.81,South,177,15.0,15.0,78,0.00,,---,0.00,VWS V14.01,2013-11-14 13:43:00,
2013-11-14 08:48:00,40.3,33.7,29.81,South,169,11.0,18.0,77,0.00,,---,0.00,VWS V14.01,2013-11-14 13:48:00,
2013-11-14 08:53:00,40.3,33.7,29.82,South,187,11.0,18.0,77,0.00,,---,0.00,VWS V14.01,2013-11-14 13:53:00,
2013-11-14 08:58:00,40.2,33.6,29.81,SSW,204,10.0,18.0,77,0.00,,---,0.00,VWS V14.01,2013-11-14 13:58:00,
2013-11-14 09:00:00,42.2,34.2,29.82,SSW,197,16.0,24.0,73,0.00,,---,0.00,VWS V15.00,2013-11-14 14:00:00,
2013-11-14 09:03:00,40.2,33.6,29.82,SSW,198,12.0,16.0,77,0.00,,---,0.00,VWS V14.01,2013-11-14 14:03:00,
2013-11-14 09:08:00,40.4,33.8,29.82,SSW,195,13.0,17.0,77,0.00,,---,0.00,VWS V14.01,2013-11-14 14:08:00,
2013-11-14 09:13:00,40.5,33.5,29.82,SSW,203,11.0,17.0,76,0.00,,---,0.00,VWS V14.01,2013-11-14 14:13:00,
2013-11-14 09:19:00,40.8,33.8,29.81,SSW,194,12.0,17.0,76,0.00,,---,0.00,VWS V14.01,2013-11-14 14:19:00,
2013-11-14 09:24:00,41.2,33.9,29.81,SSW,209,13.0,17.0,75,0.00,,---,0.00,VWS V14.01,2013-11-14 14:24:00,
2013-11-14 09:29:00,41.3,34.0,29.82,SSW,197,13.0,17.0,75,0.00,,---,0.00,VWS V14.01,2013-11-14 14:29:00,
2013-11-14 09:30:00,42.7,34.7,29.81,South,187,13.0,26.0,73,0.00,,---,0.00,VWS V15.00,2013-11-14 14:30:00,
2013-11-14 09:34:00,41.4,34.1,29.82,SSW,208,13.0,13.0,75,0.00,,---,0.00,VWS V14.01,2013-11-14 14:34:00,
2013-11-14 09:39:00,41.5,34.2,29.82,SSW,210,6.0,16.0,75,0.00,,---,0.00,VWS V14.01,2013-11-14 14:39:00,
2013-11-14 09:44:00,41.7,34.0,29.82,South,191,18.0,19.0,74,0.00,,---,0.00,VWS V14.01,2013-11-14 14:44:00,
2013-11-14 09:47:00,41.8,34.1,29.82,SSW,202,11.0,23.0,74,0.00,,---,0.00,VWS V14.01,2013-11-14 14:47:00,
2013-11-14 09:52:00,41.9,34.2,29.81,SSW,197,15.0,23.0,74,0.00,,---,0.00,VWS V14.01,2013-11-14 14:52:00,
2013-11-14 09:57:00,42.2,34.2,29.82,SSW,212,9.0,23.0,73,0.00,,---,0.00,VWS V14.01,2013-11-14 14:57:00,
2013-11-14 10:00:00,42.7,35.0,29.81,SSW,194,17.0,26.0,74,0.00,,---,0.00,VWS V15.00,2013-11-14 15:00:00,
2013-11-14 10:02:00,42.2,34.2,29.82,SSW,204,13.0,16.0,73,0.00,,---,0.00,VWS V14.01,2013-11-14 15:02:00,
2013-11-14 10:07:00,42.3,34.3,29.82,SSW,199,9.0,22.0,73,0.00,,---,0.00,VWS V14.01,2013-11-14 15:07:00,
2013-11-14 10:12:00,42.3,34.3,29.82,SSW,202,9.0,22.0,73,0.00,,---,0.00,VWS V14.01,2013-11-14 15:12:00,
2013-11-14 10:17:00,42.5,34.5,29.82,SW,221,12.0,26.0,73,0.00,,---,0.00,VWS V14.01,2013-11-14 15:17:00,
2013-11-14 10:22:00,42.5,34.5,29.81,SSW,192,19.0,26.0,73,0.00,,---,0.00,VWS V14.01,2013-11-14 15:22:00,
2013-11-14 10:27:00,42.6,34.6,29.81,SSW,194,17.0,26.0,73,0.00,,---,0.00,VWS V14.01,2013-11-14 15:27:00,
2013-11-14 10:30:00,42.7,35.3,29.80,South,185,18.0,24.0,75,0.00,,---,0.00,VWS V15.00,2013-11-14 15:30:00,
2013-11-14 10:32:00,42.7,34.7,29.81,SSW,207,12.0,13.0,73,0.00,,---,0.00,VWS V14.01,2013-11-14 15:32:00,
2013-11-14 10:37:00,42.6,34.6,29.81,South,190,14.0,20.0,73,0.00,,---,0.00,VWS V14.01,2013-11-14 15:37:00,
2013-11-14 10:42:00,42.7,34.7,29.81,SSW,212,10.0,20.0,73,0.00,,---,0.00,VWS V14.01,2013-11-14 15:42:00,
2013-11-14 10:47:00,42.7,35.0,29.81,SSW,209,12.0,25.0,74,0.00,,---,0.00,VWS V14.01,2013-11-14 15:47:00,
2013-11-14 10:52:00,42.8,34.8,29.81,SSW,205,17.0,26.0,73,0.00,,---,0.00,VWS V14.01,2013-11-14 15:52:00,
2013-11-14 10:57:00,42.8,34.8,29.81,SSW,204,16.0,26.0,73,0.00,,---,0.00,VWS V14.01,2013-11-14 15:57:00,
2013-11-14 11:00:00,43.0,36.0,29.78,South,177,13.0,26.0,76,0.00,,---,0.00,VWS V15.00,2013-11-14 16:00:00,
2013-11-14 11:02:00,42.7,35.0,29.81,SSW,207,18.0,18.0,74,0.00,,---,0.00,VWS V14.01,2013-11-14 16:02:00,
2013-11-14 11:07:00,42.7,35.0,29.81,SSW,206,12.0,24.0,74,0.00,,---,0.00,VWS V14.01,2013-11-14 16:07:00,
2013-11-14 11:12:00,42.8,35.1,29.81,SW,217,15.0,24.0,74,0.00,,---,0.00,VWS V14.01,2013-11-14 16:12:00,
2013-11-14 11:17:00,42.9,35.2,29.80,SSW,193,15.0,24.0,74,0.00,,---,0.00,VWS V14.01,2013-11-14 16:17:00,
2013-11-14 11:22:00,42.6,34.9,29.80,SSW,197,8.0,24.0,74,0.00,,---,0.00,VWS V14.01,2013-11-14 16:22:00,
2013-11-14 11:27:00,42.4,35.0,29.80,SSW,200,12.0,24.0,75,0.00,,---,0.00,VWS V14.01,2013-11-14 16:27:00,
2013-11-14 11:30:00,42.8,36.4,29.78,SSW,201,14.0,22.0,78,0.00,,---,0.00,VWS V15.00,2013-11-14 16:30:00,
2013-11-14 11:32:00,42.8,35.4,29.80,South,184,8.0,18.0,75,0.00,,---,0.00,VWS V14.01,2013-11-14 16:32:00,
2013-11-14 11:37:00,43.2,35.5,29.80,SSW,198,17.0,18.0,74,0.00,,---,0.00,VWS V14.01,2013-11-14 16:37:00,
2013-11-14 11:42:00,43.2,35.5,29.79,SSW,194,14.0,19.0,74,0.00,,---,0.00,VWS V14.01,2013-11-14 16:42:00,
2013-11-14 11:47:00,43.1,35.7,29.79,South,190,14.0,24.0,75,0.00,,---,0.00,VWS V14.01,2013-11-14 16:47:00,
2013-11-14 11:52:00,43.1,35.7,29.79,South,181,9.0,24.0,75,0.00,,---,0.00,VWS V14.01,2013-11-14 16:52:00,
2013-11-14 11:57:00,43.1,36.1,29.79,SW,220,17.0,26.0,76,0.00,,---,0.00,VWS V14.01,2013-11-14 16:57:00,
2013-11-14 12:00:00,43.1,37.0,29.78,SW,221,11.0,24.0,79,0.00,,---,0.00,VWS V15.00,2013-11-14 17:00:00,
2013-11-14 12:02:00,43.0,36.0,29.78,SW,217,16.0,16.0,76,0.00,,---,0.00,VWS V14.01,2013-11-14 17:02:00,
2013-11-14 12:07:00,43.1,36.1,29.78,SSW,203,13.0,20.0,76,0.00,,---,0.00,VWS V14.01,2013-11-14 17:07:00,
2013-11-14 12:12:00,43.2,36.2,29.78,SSW,206,12.0,20.0,76,0.00,,---,0.00,VWS V14.01,2013-11-14 17:12:00,
2013-11-14 12:17:00,43.1,36.1,29.78,South,184,18.0,22.0,76,0.00,,---,0.00,VWS V14.01,2013-11-14 17:17:00,
2013-11-14 12:22:00,43.0,36.3,29.78,SSW,193,14.0,22.0,77,0.00,,---,0.00,VWS V14.01,2013-11-14 17:22:00,
2013-11-14 12:27:00,43.0,36.6,29.78,SW,235,9.0,22.0,78,0.00,,---,0.00,VWS V14.01,2013-11-14 17:27:00,
2013-11-14 12:30:00,43.3,37.6,29.78,SSW,193,11.0,22.0,80,0.00,,---,0.00,VWS V15.00,2013-11-14 17:30:00,
2013-11-14 12:32:00,42.8,36.4,29.78,SSW,209,7.0,14.0,78,0.00,,---,0.00,VWS V14.01,2013-11-14 17:32:00,
2013-11-14 12:37:00,42.8,36.4,29.78,SSW,210,24.0,24.0,78,0.00,,---,0.00,VWS V14.01,2013-11-14 17:37:00,
2013-11-14 12:42:00,42.7,36.7,29.78,SSW,206,16.0,24.0,79,0.00,,---,0.00,VWS V14.01,2013-11-14 17:42:00,
2013-11-14 12:47:00,42.8,36.8,29.78,South,187,14.0,24.0,79,0.00,,---,0.00,VWS V14.01,2013-11-14 17:47:00,
2013-11-14 12:52:00,43.0,36.9,29.78,SW,216,4.0,24.0,79,0.00,,---,0.00,VWS V14.01,2013-11-14 17:52:00,
2013-11-14 12:57:00,43.0,36.9,29.78,SSW,212,11.0,24.0,79,0.00,,---,0.00,VWS V14.01,2013-11-14 17:57:00,
2013-11-14 13:00:00,43.3,36.6,29.78,SW,217,18.0,22.0,77,0.00,,---,0.00,VWS V15.00,2013-11-14 18:00:00,
2013-11-14 13:02:00,43.1,37.0,29.78,South,189,13.0,17.0,79,0.00,,---,0.00,VWS V14.01,2013-11-14 18:02:00,
2013-11-14 13:07:00,43.4,37.3,29.78,SSW,207,11.0,17.0,79,0.00,,---,0.00,VWS V14.01,2013-11-14 18:07:00,
2013-11-14 13:12:00,43.4,37.3,29.78,SW,233,10.0,17.0,79,0.00,,---,0.00,VWS V14.01,2013-11-14 18:12:00,
2013-11-14 13:17:00,43.2,37.1,29.78,SW,227,17.0,18.0,79,0.00,,---,0.00,VWS V14.01,2013-11-14 18:17:00,
2013-11-14 13:22:00,43.1,37.0,29.78,SW,223,17.0,21.0,79,0.00,,---,0.00,VWS V14.01,2013-11-14 18:22:00,
2013-11-14 13:27:00,43.2,37.5,29.78,SSW,211,18.0,22.0,80,0.00,,---,0.00,VWS V14.01,2013-11-14 18:27:00,
2013-11-14 13:30:00,43.3,36.6,29.77,SW,221,14.0,19.0,77,0.00,,---,0.00,VWS V15.00,2013-11-14 18:30:00,
2013-11-14 13:32:00,43.3,37.6,29.78,SSW,206,11.0,14.0,80,0.00,,---,0.00,VWS V14.01,2013-11-14 18:32:00,
2013-11-14 13:37:00,43.4,37.3,29.78,SSW,211,16.0,20.0,79,0.00,,---,0.00,VWS V14.01,2013-11-14 18:37:00,
2013-11-14 13:42:00,43.5,37.4,29.78,SW,218,15.0,20.0,79,0.00,,---,0.00,VWS V14.01,2013-11-14 18:42:00,
2013-11-14 13:47:00,43.4,37.3,29.78,SW,227,14.0,20.0,79,0.00,,---,0.00,VWS V14.01,2013-11-14 18:47:00,
2013-11-14 13:52:00,43.4,37.3,29.78,SW,224,16.0,20.0,79,0.00,,---,0.00,VWS V14.01,2013-11-14 18:52:00,
2013-11-14 13:57:00,43.3,36.9,29.78,SSW,211,17.0,20.0,78,0.00,,---,0.00,VWS V14.01,2013-11-14 18:57:00,
2013-11-14 14:00:00,43.1,36.7,29.77,WSW,238,15.0,18.0,78,0.00,,---,0.00,VWS V15.00,2013-11-14 19:00:00,
2013-11-14 14:02:00,43.3,36.6,29.78,SW,227,16.0,18.0,77,0.00,,---,0.00,VWS V14.01,2013-11-14 19:02:00,
2013-11-14 14:07:00,43.3,36.6,29.78,SW,223,18.0,19.0,77,0.00,,---,0.00,VWS V14.01,2013-11-14 19:07:00,
2013-11-14 14:12:00,43.3,36.6,29.78,SW,224,16.0,19.0,77,0.00,,---,0.00,VWS V14.01,2013-11-14 19:12:00,
2013-11-14 14:17:00,43.3,36.6,29.78,SW,223,15.0,19.0,77,0.00,,---,0.00,VWS V14.01,2013-11-14 19:17:00,
2013-11-14 14:22:00,43.4,36.7,29.77,SW,221,14.0,19.0,77,0.00,,---,0.00,VWS V14.01,2013-11-14 19:22:00,
2013-11-14 14:28:00,43.3,36.9,29.77,SW,223,14.0,19.0,78,0.00,,---,0.00,VWS V14.01,2013-11-14 19:28:00,
2013-11-14 14:30:00,42.9,36.8,29.77,SW,228,11.0,17.0,79,0.00,,---,0.00,VWS V15.00,2013-11-14 19:30:00,
2013-11-14 14:33:00,43.3,36.6,29.77,SW,214,11.0,15.0,77,0.00,,---,0.00,VWS V14.01,2013-11-14 19:33:00,
2013-11-14 14:38:00,43.2,36.5,29.77,SW,218,14.0,16.0,77,0.00,,---,0.00,VWS V14.01,2013-11-14 19:38:00,
2013-11-14 14:43:00,43.2,36.8,29.77,SW,217,13.0,16.0,78,0.00,,---,0.00,VWS V14.01,2013-11-14 19:43:00,
2013-11-14 14:48:00,43.2,36.8,29.77,SW,223,13.0,17.0,78,0.00,,---,0.00,VWS V14.01,2013-11-14 19:48:00,
2013-11-14 14:53:00,43.2,36.8,29.77,SW,221,15.0,18.0,78,0.00,,---,0.00,VWS V14.01,2013-11-14 19:53:00,
2013-11-14 14:58:00,43.1,36.7,29.77,SW,221,13.0,18.0,78,0.00,,---,0.00,VWS V14.01,2013-11-14 19:58:00,
2013-11-14 15:00:00,42.6,36.9,29.77,SW,220,10.0,16.0,80,0.00,,---,0.00,VWS V15.00,2013-11-14 20:00:00,
2013-11-14 15:03:00,43.1,36.7,29.77,SW,224,12.0,15.0,78,0.00,,---,0.00,VWS V14.01,2013-11-14 20:03:00,
2013-11-14 15:08:00,43.1,36.7,29.77,SW,223,13.0,17.0,78,0.00,,---,0.00,VWS V14.01,2013-11-14 20:08:00,
2013-11-14 15:13:00,43.1,36.7,29.77,SW,217,11.0,17.0,78,0.00,,---,0.00,VWS V14.01,2013-11-14 20:13:00,
2013-11-14 15:18:00,43.0,36.6,29.77,SW,217,12.0,17.0,78,0.00,,---,0.00,VWS V14.01,2013-11-14 20:18:00,
2013-11-14 15:23:00,42.9,36.8,29.77,SW,219,11.0,17.0,79,0.00,,---,0.00,VWS V14.01,2013-11-14 20:23:00,
2013-11-14 15:28:00,42.9,36.8,29.77,SW,229,10.0,17.0,79,0.00,,---,0.00,VWS V14.01,2013-11-14 20:28:00,
2013-11-14 15:30:00,42.5,37.1,29.77,SW,214,7.0,14.0,81,0.00,,---,0.00,VWS V15.00,2013-11-14 20:30:00,
2013-11-14 15:33:00,42.9,36.8,29.77,SW,230,13.0,13.0,79,0.00,,---,0.00,VWS V14.01,2013-11-14 20:33:00,
2013-11-14 15:38:00,42.8,37.1,29.77,SW,226,14.0,15.0,80,0.00,,---,0.00,VWS V14.01,2013-11-14 20:38:00,
2013-11-14 15:43:00,42.8,37.1,29.77,SW,225,13.0,16.0,80,0.00,,---,0.00,VWS V14.01,2013-11-14 20:43:00,
2013-11-14 15:48:00,42.8,37.1,29.77,SW,221,12.0,16.0,80,0.00,,---,0.00,VWS V14.01,2013-11-14 20:48:00,
2013-11-14 15:53:00,42.8,37.1,29.77,SW,223,12.0,16.0,80,0.00,,---,0.00,VWS V14.01,2013-11-14 20:53:00,
2013-11-14 15:58:00,42.6,36.9,29.77,SSW,209,9.0,16.0,80,0.00,,---,0.00,VWS V14.01,2013-11-14 20:58:00,
2013-11-14 16:00:00,42.5,37.4,29.78,SW,222,6.0,9.0,82,0.00,,---,0.00,VWS V15.00,2013-11-14 21:00:00,
2013-11-14 16:03:00,42.6,36.9,29.77,SW,215,9.0,13.0,80,0.00,,---,0.00,VWS V14.01,2013-11-14 21:03:00,
2013-11-14 16:08:00,42.7,37.0,29.77,SW,221,10.0,14.0,80,0.00,,---,0.00,VWS V14.01,2013-11-14 21:08:00,
2013-11-14 16:13:00,42.7,37.0,29.77,SW,217,13.0,14.0,80,0.00,,---,0.00,VWS V14.01,2013-11-14 21:13:00,
2013-11-14 16:18:00,42.7,37.0,29.77,SW,217,8.0,14.0,80,0.00,,---,0.00,VWS V14.01,2013-11-14 21:18:00,
2013-11-14 16:23:00,42.6,36.9,29.77,SSW,212,7.0,14.0,80,0.00,,---,0.00,VWS V14.01,2013-11-14 21:23:00,
2013-11-14 16:28:00,42.5,37.1,29.77,SSW,213,3.0,14.0,81,0.00,,---,0.00,VWS V14.01,2013-11-14 21:28:00,
2013-11-14 16:30:00,42.3,37.5,29.79,SW,223,9.0,11.0,83,0.00,,---,0.00,VWS V15.00,2013-11-14 21:30:00,
2013-11-14 16:33:00,42.5,37.1,29.77,SW,217,8.0,8.0,81,0.00,,---,0.00,VWS V14.01,2013-11-14 21:33:00,
2013-11-14 16:38:00,42.5,37.1,29.78,SW,219,8.0,9.0,81,0.00,,---,0.00,VWS V14.01,2013-11-14 21:38:00,
2013-11-14 16:43:00,42.5,37.1,29.78,SW,215,5.0,9.0,81,0.00,,---,0.00,VWS V14.01,2013-11-14 21:43:00,
2013-11-14 16:48:00,42.4,37.0,29.78,SSW,212,3.0,9.0,81,0.00,,---,0.00,VWS V14.01,2013-11-14 21:48:00,
2013-11-14 16:53:00,42.4,37.3,29.78,SSW,212,6.0,9.0,82,0.00,,---,0.00,VWS V14.01,2013-11-14 21:53:00,
2013-11-14 16:58:00,42.5,37.4,29.78,SW,221,6.0,9.0,82,0.00,,---,0.00,VWS V14.01,2013-11-14 21:58:00,
2013-11-14 17:00:00,41.9,37.4,29.80,SW,221,3.0,9.0,84,0.00,,---,0.00,VWS V15.00,2013-11-14 22:00:00,
2013-11-14 17:03:00,42.5,37.4,29.78,SW,222,6.0,6.0,82,0.00,,---,0.00,VWS V14.01,2013-11-14 22:03:00,
2013-11-14 17:08:00,42.4,37.6,29.78,SW,219,5.0,6.0,83,0.00,,---,0.00,VWS V14.01,2013-11-14 22:08:00,
2013-11-14 17:13:00,42.3,37.5,29.78,SW,216,6.0,7.0,83,0.00,,---,0.00,VWS V14.01,2013-11-14 22:13:00,
2013-11-14 17:18:00,42.3,37.5,29.79,SW,219,6.0,9.0,83,0.00,,---,0.00,VWS V14.01,2013-11-14 22:18:00,
2013-11-14 17:23:00,42.4,37.6,29.79,SW,225,8.0,9.0,83,0.00,,---,0.00,VWS V14.01,2013-11-14 22:23:00,
2013-11-14 17:28:00,42.3,37.5,29.79,SW,227,8.0,11.0,83,0.00,,---,0.00,VWS V14.01,2013-11-14 22:28:00,
2013-11-14 17:30:00,42.6,37.8,29.80,WSW,239,14.0,16.0,83,0.00,,---,0.00,VWS V15.00,2013-11-14 22:30:00,
2013-11-14 17:33:00,42.3,37.5,29.79,SW,225,8.0,9.0,83,0.00,,---,0.00,VWS V14.01,2013-11-14 22:33:00,
2013-11-14 17:38:00,42.2,37.7,29.80,SW,221,8.0,9.0,84,0.00,,---,0.00,VWS V14.01,2013-11-14 22:38:00,
2013-11-14 17:43:00,42.2,37.7,29.80,SW,221,7.0,9.0,84,0.00,,---,0.00,VWS V14.01,2013-11-14 22:43:00,
2013-11-14 17:48:00,42.2,37.7,29.80,SW,221,6.0,9.0,84,0.00,,---,0.00,VWS V14.01,2013-11-14 22:48:00,
2013-11-14 17:54:00,42.0,37.5,29.80,SW,221,2.0,9.0,84,0.00,,---,0.00,VWS V14.01,2013-11-14 22:54:00,
2013-11-14 17:59:00,41.9,37.4,29.80,SW,221,4.0,9.0,84,0.00,,---,0.00,VWS V14.01,2013-11-14 22:59:00,
2013-11-14 18:00:00,40.9,37.6,29.80,SSW,213,21.0,31.0,88,0.02,,---,0.02,VWS V15.00,2013-11-14 23:00:00,
2013-11-14 18:04:00,41.9,37.4,29.80,SW,221,5.0,6.0,84,0.00,,---,0.00,VWS V14.01,2013-11-14 23:04:00,
2013-11-14 18:09:00,41.9,37.4,29.80,SW,218,3.0,8.0,84,0.00,,---,0.00,VWS V14.01,2013-11-14 23:09:00,
2013-11-14 18:14:00,41.8,37.3,29.80,SW,214,6.0,8.0,84,0.00,,---,0.00,VWS V14.01,2013-11-14 23:14:00,
2013-11-14 18:19:00,41.9,37.4,29.80,SW,225,5.0,11.0,84,0.00,,---,0.00,VWS V14.01,2013-11-14 23:19:00,
2013-11-14 18:24:00,42.3,37.8,29.80,SW,231,9.0,13.0,84,0.00,,---,0.00,VWS V14.01,2013-11-14 23:24:00,
2013-11-14 18:29:00,42.5,37.7,29.80,SW,233,12.0,15.0,83,0.00,,---,0.00,VWS V14.01,2013-11-14 23:29:00,
2013-11-14 18:30:00,40.8,38.7,29.80,SSW,212,18.0,25.0,92,0.04,,---,0.04,VWS V15.00,2013-11-14 23:30:00,
2013-11-14 18:34:00,42.6,37.8,29.80,WSW,241,18.0,19.0,83,0.00,,---,0.00,VWS V14.01,2013-11-14 23:34:00,
2013-11-14 18:39:00,42.7,37.9,29.80,SW,233,19.0,21.0,83,0.00,,---,0.00,VWS V14.01,2013-11-14 23:39:00,
2013-11-14 18:44:00,42.4,37.9,29.80,WSW,239,23.0,26.0,84,0.00,,---,0.00,VWS V14.01,2013-11-14 23:44:00,
2013-11-14 18:49:00,41.9,37.7,29.81,SW,228,25.0,29.0,85,0.00,,---,0.00,VWS V14.01,2013-11-14 23:49:00,
2013-11-14 18:54:00,41.4,37.5,29.80,SW,231,17.0,31.0,86,0.01,,---,0.01,VWS V14.01,2013-11-14 23:54:00,
2013-11-14 18:59:00,41.0,37.4,29.80,SW,225,22.0,31.0,87,0.01,,---,0.01,VWS V14.01,2013-11-14 23:59:00,
2013-11-14 19:00:00,40.7,38.8,29.78,SSW,208,5.0,21.0,93,0.05,,---,0.05,VWS V15.00,2013-11-15 00:00:00,
2013-11-14 19:04:00,40.9,37.9,29.80,SW,219,23.0,25.0,89,0.02,,---,0.02,VWS V14.01,2013-11-15 00:04:00,
2013-11-14 19:09:00,40.7,38.0,29.80,SW,219,17.0,25.0,90,0.03,,---,0.03,VWS V14.01,2013-11-15 00:09:00,
2013-11-14 19:14:00,40.6,38.2,29.80,SW,216,8.0,25.0,91,0.03,,---,0.03,VWS V14.01,2013-11-15 00:14:00,
2013-11-14 19:19:00,40.5,38.1,29.80,SW,229,16.0,25.0,91,0.03,,---,0.03,VWS V14.01,2013-11-15 00:19:00,
2013-11-14 19:24:00,40.5,38.4,29.80,SW,219,11.0,25.0,92,0.03,,---,0.03,VWS V14.01,2013-11-15 00:24:00,
2013-11-14 19:29:00,40.5,38.4,29.80,SSW,212,15.0,25.0,92,0.04,,---,0.04,VWS V14.01,2013-11-15 00:29:00,
2013-11-14 19:30:00,40.6,38.7,29.78,SSW,207,5.0,15.0,93,0.03,,---,0.05,VWS V15.00,2013-11-15 00:30:00,
2013-11-14 19:34:00,40.8,38.7,29.80,SW,224,13.0,20.0,92,0.04,,---,0.04,VWS V14.01,2013-11-15 00:34:00,
2013-11-14 19:39:00,40.9,38.8,29.80,SW,219,12.0,21.0,92,0.04,,---,0.04,VWS V14.01,2013-11-15 00:39:00,
2013-11-14 19:44:00,40.7,38.6,29.79,SSW,206,7.0,21.0,92,0.04,,---,0.04,VWS V14.01,2013-11-15 00:44:00,
2013-11-14 19:49:00,40.6,38.7,29.79,SSW,210,10.0,21.0,93,0.05,,---,0.05,VWS V14.01,2013-11-15 00:49:00,
2013-11-14 19:54:00,40.7,38.8,29.78,SSW,208,11.0,21.0,93,0.05,,---,0.05,VWS V14.01,2013-11-15 00:54:00,
2013-11-14 19:59:00,40.7,38.8,29.78,SSW,203,13.0,21.0,93,0.05,,---,0.05,VWS V14.01,2013-11-15 00:59:00,
2013-11-14 20:00:00,40.6,38.7,29.79,SSW,193,4.0,16.0,93,0.01,,---,0.05,VWS V15.00,2013-11-15 01:00:00,
2013-11-14 20:04:00,40.6,38.7,29.78,SSW,199,10.0,10.0,93,0.03,,---,0.05,VWS V14.01,2013-11-15 01:04:00,
2013-11-14 20:09:00,40.7,38.8,29.78,SSW,207,7.0,13.0,93,0.03,,---,0.05,VWS V14.01,2013-11-15 01:09:00,
2013-11-14 20:14:00,40.7,38.8,29.78,SSW,207,7.0,13.0,93,0.03,,---,0.05,VWS V14.01,2013-11-15 01:14:00,
2013-11-14 20:19:00,40.7,38.8,29.78,SW,223,4.0,15.0,93,0.03,,---,0.05,VWS V14.01,2013-11-15 01:19:00,
2013-11-14 20:24:00,40.7,38.8,29.78,SSW,204,6.0,15.0,93,0.03,,---,0.05,VWS V14.01,2013-11-15 01:24:00,
2013-11-14 20:29:00,40.7,38.8,29.78,SSW,200,2.0,15.0,93,0.03,,---,0.05,VWS V14.01,2013-11-15 01:29:00,
2013-11-14 20:30:00,40.9,38.5,29.80,SSW,208,12.0,15.0,91,0.00,,---,0.05,VWS V15.00,2013-11-15 01:30:00,
2013-11-14 20:34:00,40.7,38.8,29.78,SSW,200,10.0,10.0,93,0.01,,---,0.05,VWS V14.01,2013-11-15 01:34:00,
2013-11-14 20:39:00,40.7,38.6,29.78,SSW,192,6.0,11.0,92,0.01,,---,0.05,VWS V14.01,2013-11-15 01:39:00,
2013-11-14 20:44:00,40.7,38.6,29.78,SSW,201,9.0,13.0,92,0.01,,---,0.05,VWS V14.01,2013-11-15 01:44:00,
2013-11-14 20:49:00,40.7,38.6,29.78,SW,214,8.0,16.0,92,0.01,,---,0.05,VWS V14.01,2013-11-15 01:49:00,
2013-11-14 20:54:00,40.6,38.5,29.78,SSW,196,8.0,16.0,92,0.01,,---,0.05,VWS V14.01,2013-11-15 01:54:00,
2013-11-14 20:59:00,40.6,38.7,29.79,SSW,203,5.0,16.0,93,0.01,,---,0.05,VWS V14.01,2013-11-15 01:59:00,
2013-11-14 21:00:00,41.0,38.3,29.80,SSW,202,6.0,16.0,90,0.00,,---,0.05,VWS V15.00,2013-11-15 02:00:00,
2013-11-14 21:04:00,40.6,38.7,29.79,SSW,203,6.0,8.0,93,0.00,,---,0.05,VWS V14.01,2013-11-15 02:04:00,
2013-11-14 21:09:00,40.6,38.7,29.78,SSW,194,7.0,9.0,93,0.00,,---,0.05,VWS V14.01,2013-11-15 02:09:00,
2013-11-14 21:14:00,40.6,38.5,29.79,SSW,196,7.0,11.0,92,0.00,,---,0.05,VWS V14.01,2013-11-15 02:14:00,
2013-11-14 21:19:00,40.7,38.6,29.80,SSW,206,8.0,13.0,92,0.00,,---,0.05,VWS V14.01,2013-11-15 02:19:00,
2013-11-14 21:24:00,40.8,38.4,29.80,SW,214,12.0,14.0,91,0.00,,---,0.05,VWS V14.01,2013-11-15 02:24:00,
2013-11-14 21:29:00,40.9,38.5,29.80,SW,219,8.0,15.0,91,0.00,,---,0.05,VWS V14.01,2013-11-15 02:29:00,
2013-11-14 21:30:00,40.8,37.5,29.80,South,189,11.0,15.0,88,0.00,,---,0.05,VWS V15.00,2013-11-15 02:30:00,
2013-11-14 21:34:00,40.9,38.5,29.80,SSW,209,10.0,13.0,91,0.00,,---,0.05,VWS V14.01,2013-11-15 02:34:00,
2013-11-14 21:39:00,40.9,38.5,29.80,SSW,206,11.0,13.0,91,0.00,,---,0.05,VWS V14.01,2013-11-15 02:39:00,
2013-11-14 21:44:00,40.9,38.5,29.80,SSW,200,7.0,13.0,91,0.00,,---,0.05,VWS V14.01,2013-11-15 02:44:00,
2013-11-14 21:49:00,41.0,38.3,29.80,South,190,10.0,16.0,90,0.00,,---,0.05,VWS V14.01,2013-11-15 02:49:00,
2013-11-14 21:54:00,41.0,38.3,29.80,SSW,208,11.0,16.0,90,0.00,,---,0.05,VWS V14.01,2013-11-15 02:54:00,
2013-11-14 21:59:00,41.0,38.3,29.80,SW,219,9.0,16.0,90,0.00,,---,0.05,VWS V14.01,2013-11-15 02:59:00,
2013-11-14 22:00:00,40.8,37.2,29.81,SSW,194,9.0,15.0,87,0.00,,---,0.05,VWS V15.00,2013-11-15 03:00:00,
2013-11-14 22:04:00,40.9,38.2,29.80,South,191,11.0,11.0,90,0.00,,---,0.05,VWS V14.01,2013-11-15 03:04:00,
2013-11-14 22:09:00,40.9,38.2,29.80,SSW,213,3.0,11.0,90,0.00,,---,0.05,VWS V14.01,2013-11-15 03:09:00,
2013-11-14 22:14:00,40.8,37.8,29.80,SSW,200,11.0,13.0,89,0.00,,---,0.05,VWS V14.01,2013-11-15 03:14:00,
2013-11-14 22:19:00,40.9,37.6,29.80,South,187,10.0,13.0,88,0.00,,---,0.05,VWS V14.01,2013-11-15 03:19:00,
2013-11-14 22:24:00,40.9,37.6,29.80,SW,214,6.0,15.0,88,0.00,,---,0.05,VWS V14.01,2013-11-15 03:24:00,
2013-11-14 22:29:00,40.8,37.5,29.80,SSW,206,7.0,15.0,88,0.00,,---,0.05,VWS V14.01,2013-11-15 03:29:00,
2013-11-14 22:30:00,41.0,37.1,29.80,SW,217,8.0,17.0,86,0.00,,---,0.05,VWS V15.00,2013-11-15 03:30:00,
2013-11-14 22:34:00,40.8,37.5,29.80,SSW,202,12.0,15.0,88,0.00,,---,0.05,VWS V14.01,2013-11-15 03:34:00,
2013-11-14 22:39:00,40.8,37.2,29.80,SSW,201,12.0,15.0,87,0.00,,---,0.05,VWS V14.01,2013-11-15 03:39:00,
2013-11-14 22:44:00,40.9,37.3,29.81,SSW,206,6.0,15.0,87,0.00,,---,0.05,VWS V14.01,2013-11-15 03:44:00,
2013-11-14 22:49:00,40.9,37.3,29.81,SW,216,12.0,15.0,87,0.00,,---,0.05,VWS V14.01,2013-11-15 03:49:00,
2013-11-14 22:54:00,40.9,37.3,29.81,SSW,210,7.0,15.0,87,0.00,,---,0.05,VWS V14.01,2013-11-15 03:54:00,
2013-11-14 22:59:00,40.8,37.2,29.81,SW,215,5.0,15.0,87,0.00,,---,0.05,VWS V14.01,2013-11-15 03:59:00,
2013-11-14 23:00:00,41.0,37.1,29.81,SW,217,10.0,13.0,86,0.00,,---,0.05,VWS V15.00,2013-11-15 04:00:00,
2013-11-14 23:04:00,40.9,37.3,29.81,SSW,192,11.0,15.0,87,0.00,,---,0.05,VWS V14.01,2013-11-15 04:04:00,
2013-11-14 23:09:00,40.9,37.3,29.81,SSW,198,11.0,15.0,87,0.00,,---,0.05,VWS V14.01,2013-11-15 04:09:00,
2013-11-14 23:14:00,41.0,37.1,29.81,SSW,201,11.0,15.0,86,0.00,,---,0.05,VWS V14.01,2013-11-15 04:14:00,
2013-11-14 23:19:00,40.9,37.0,29.81,SSW,203,10.0,15.0,86,0.00,,---,0.05,VWS V14.01,2013-11-15 04:19:00,
2013-11-14 23:24:00,41.0,37.1,29.81,SW,235,12.0,17.0,86,0.00,,---,0.05,VWS V14.01,2013-11-15 04:24:00,
2013-11-14 23:29:00,40.9,37.0,29.80,SW,219,13.0,17.0,86,0.00,,---,0.05,VWS V14.01,2013-11-15 04:29:00,
2013-11-14 23:30:00,41.1,37.2,29.82,SSW,208,8.0,14.0,86,0.00,,---,0.00,VWS V15.00,2013-11-15 04:30:00,
2013-11-14 23:34:00,41.0,37.1,29.80,SSW,198,9.0,13.0,86,0.00,,---,0.05,VWS V14.01,2013-11-15 04:34:00,
2013-11-14 23:39:00,40.9,37.0,29.81,SW,215,8.0,13.0,86,0.00,,---,0.05,VWS V14.01,2013-11-15 04:39:00,
2013-11-14 23:44:00,40.9,37.0,29.81,SSW,208,8.0,13.0,86,0.00,,---,0.05,VWS V14.01,2013-11-15 04:44:00,
2013-11-14 23:49:00,40.9,37.0,29.81,SW,219,6.0,13.0,86,0.00,,---,0.05,VWS V14.01,2013-11-15 04:49:00,
2013-11-14 23:54:00,40.9,37.0,29.81,SSW,204,6.0,13.0,86,0.00,,---,0.05,VWS V14.01,2013-11-15 04:54:00,